EW4050 Weather Reports


time (UTC)temp
C
wind
direction
speed
KPH
gust
KPH
rain 1hr
cm
rain 24hr
cm
rain mn
cm
humidity
%
barometer
mb
20260507113007 10 94 0.0 1.6 0.00 0.00 0.00 82 1014.6
20260507111600 10 94 0.0 3.2 0.00 0.00 0.00 81 1014.8
20260507110058 10 94 0.0 3.2 0.00 0.00 0.00 81 1014.9
20260507104557 11 94 0.0 4.8 0.00 0.00 0.00 80 1014.9
20260507103058 11 80 0.0 3.2 0.00 0.00 0.00 81 1015.1
20260507101556 11 79 0.0 3.2 0.00 0.00 0.00 81 1015.1
20260507100106 11 79 0.0 0.0 0.00 0.00 0.00 81 1015.1
20260507094559 11 78 0.0 4.8 0.00 0.00 0.00 81 1015.3
20260507093053 10 72 0.0 0.0 0.00 0.00 0.00 81 1015.4
20260507091608 11 72 0.0 0.0 0.00 0.00 0.00 81 1015.5
20260507090050 10 72 0.0 0.0 0.00 0.00 0.00 80 1015.7
20260507084555 11 72 0.0 0.0 0.00 0.00 0.00 79 1015.9
20260507083044 11 72 0.0 0.0 0.00 0.00 0.00 78 1016.0
20260507081549 11 72 0.0 1.6 0.00 0.00 0.00 78 1016.2
20260507080046 11 61 0.0 8.0 0.00 0.00 0.00 78 1016.2
20260507074548 11 45 0.0 1.6 0.00 0.00 0.00 77 1016.1
20260507073040 11 45 0.0 3.2 0.00 0.00 0.00 76 1016.3
20260507071537 12 45 0.0 1.6 0.00 0.00 0.00 76 1016.3
20260507070038 12 45 0.0 4.8 0.00 0.00 0.00 76 1016.4
20260507064539 12 44 0.0 1.6 0.00 0.00 0.00 75 1016.5
20260507063041 12 44 0.0 1.6 0.00 0.00 0.00 75 1016.5
20260507061540 12 44 0.0 9.7 0.00 0.00 0.00 75 1016.5
20260507060036 12 38 8.0 11.3 0.00 0.00 0.00 77 1016.4
20260507054538 12 115 0.0 6.4 0.00 0.00 0.00 77 1016.7
20260507053036 12 211 0.0 3.2 0.00 0.00 0.00 78 1016.6
20260507051536 12 213 1.6 4.8 0.00 0.00 0.00 77 1016.7
20260507050036 12 213 0.0 3.2 0.00 0.00 0.00 77 1016.6
20260507044536 12 213 0.0 3.2 0.00 0.00 0.00 76 1016.5
20260507043048 12 213 0.0 1.6 0.00 0.00 0.00 75 1016.5
20260507041535 13 213 0.0 1.6 0.00 0.00 0.00 74 1016.4
20260507040037 13 213 0.0 8.0 0.00 0.00 0.00 73 1016.4
20260507034537 13 213 4.8 9.7 0.00 0.00 0.00 72 1016.3
20260507033038 13 189 3.2 6.4 0.00 0.00 0.00 71 1016.0
20260507031539 14 164 3.2 9.7 0.00 0.00 0.00 70 1015.8
20260507030035 15 198 4.8 8.0 0.00 0.00 0.00 67 1015.7
20260507024534 15 226 6.4 12.9 0.00 0.00 0.00 64 1015.6
20260507023035 16 228 9.7 16.1 0.00 0.00 0.00 61 1015.5
20260507021537 17 212 9.7 16.1 0.00 0.00 0.00 56 1015.4
20260507020047 18 200 8.0 14.5 0.00 0.00 0.00 52 1015.3
20260507014536 18 197 9.7 20.9 0.00 0.00 0.00 50 1015.2
20260507013034 19 173 11.3 22.5 0.00 0.00 0.00 49 1015.0
20260507011543 19 223 19.3 27.4 0.00 0.00 0.00 48 1014.9
20260507010036 20 212 19.3 27.4 0.00 0.00 0.00 47 1014.8
20260507004532 20 218 17.7 29.0 0.00 0.00 0.00 47 1014.8
20260507003031 21 217 19.3 27.4 0.00 0.00 0.00 48 1014.8
20260507001602 21 223 22.5 29.0 0.00 0.00 0.00 48 1014.6
20260507000040 21 188 16.1 30.6 0.00 0.00 0.00 48 1014.5
20260506234531 21 217 19.3 33.8 0.00 0.00 0.00 47 1014.5
20260506233031 22 205 19.3 29.0 0.00 0.00 0.00 47 1014.5
20260506231530 22 155 14.5 25.7 0.00 0.00 0.00 46 1014.5
20260506230047 23 213 19.3 27.4 0.00 0.00 0.00 45 1014.6
20260506224526 23 199 17.7 32.2 0.00 0.00 0.00 45 1014.8
20260506223030 23 203 17.7 30.6 0.00 0.00 0.00 45 1015.0
20260506221522 23 248 14.5 29.0 0.00 0.00 0.00 44 1015.1
20260506220023 23 225 14.5 25.7 0.00 0.00 0.00 43 1015.3
20260506214522 24 225 16.1 25.7 0.00 0.00 0.00 41 1015.5
20260506213019 23 219 16.1 27.4 0.00 0.00 0.00 42 1015.7
20260506211521 24 194 12.9 24.1 0.00 0.00 0.00 40 1015.8
20260506210034 23 157 0.0 11.3 0.00 0.00 0.00 32 1015.9
20260506204515 23 315 4.8 12.9 0.00 0.00 0.00 33 1016.1
20260506203012 23 163 1.6 14.5 0.00 0.00 0.00 34 1016.2
20260506201513 22 286 1.6 9.7 0.00 0.00 0.00 36 1016.4
20260506200007 21 65 3.2 16.1 0.00 0.00 0.00 38 1016.6
20260506194507 21 281 4.8 14.5 0.00 0.00 0.00 39 1016.7
20260506193007 22 92 8.0 14.5 0.00 0.00 0.00 37 1017.0
20260506191504 21 138 4.8 8.0 0.00 0.00 0.00 42 1017.2
20260506190002 20 179 8.0 12.9 0.00 0.00 0.00 42 1017.3
20260506184559 19 171 1.6 9.7 0.00 0.00 0.00 43 1017.5
20260506183107 19 150 6.4 11.3 0.00 0.00 0.00 48 1017.7
20260506181601 18 136 3.2 14.5 0.00 0.03 0.00 48 1017.8
20260506180055 18 115 3.2 8.0 0.00 0.03 0.00 49 1017.9
20260506174552 17 106 3.2 12.9 0.00 0.03 0.00 49 1017.9
20260506173058 17 61 4.8 9.7 0.00 0.03 0.00 51 1017.8
20260506171552 17 69 4.8 11.3 0.00 0.03 0.00 50 1017.9
20260506170054 16 128 1.6 9.7 0.00 0.03 0.00 54 1017.9
20260506164558 15 204 4.8 11.3 0.00 0.03 0.00 54 1017.9
20260506163054 15 152 6.4 14.5 0.00 0.03 0.00 56 1017.9
20260506161543 15 111 3.2 6.4 0.00 0.03 0.00 59 1017.9
20260506160043 13 158 6.4 12.9 0.00 0.03 0.00 61 1017.8
20260506154539 13 164 4.8 8.0 0.00 0.03 0.00 64 1017.9
20260506153034 12 164 0.0 8.0 0.00 0.03 0.00 69 1017.8
20260506151535 11 114 0.0 4.8 0.00 0.03 0.00 79 1017.9
20260506150028 10 113 0.0 6.4 0.00 0.03 0.00 87 1017.9
20260506144528 8 110 0.0 0.0 0.00 0.03 0.00 89 1017.9
20260506143023 7 110 0.0 0.0 0.00 0.03 0.00 90 1017.7
20260506141527 7 110 0.0 0.0 0.00 0.03 0.00 90 1017.7
20260506140017 6 110 0.0 0.0 0.00 0.03 0.00 90 1017.7
20260506134516 6 110 0.0 0.0 0.00 0.03 0.00 90 1017.6
20260506133016 5 110 0.0 0.0 0.00 0.03 0.00 90 1017.4
20260506131514 5 110 0.0 0.0 0.00 0.03 0.00 89 1017.3
20260506130014 5 110 0.0 0.0 0.00 0.03 0.00 89 1017.2
20260506124514 5 110 0.0 0.0 0.00 0.03 0.00 89 1017.1
20260506123015 5 110 0.0 0.0 0.00 0.03 0.00 88 1017.0
20260506121514 5 110 0.0 0.0 0.00 0.03 0.00 89 1016.8
20260506120025 5 110 0.0 0.0 0.00 0.03 0.00 88 1016.9
20260506114511 5 110 0.0 1.6 0.00 0.03 0.00 88 1016.9